Temp
14 14 14 14 14 14 14 13 13 13 13 13 13 13 13 13 13 13 13 13 13 13 13 13 13 13 12 13 16 20 20 20 19 19 21 22 24 25 25 26 27 27 28 29 30 30 29
14 14 13 13 12 12 12 12 11 11 12 12 12 12 11 12 12 12 12 12 12 13 13 13 13 13 12 14 17 17 17 19 20 22 22 24 25 26 26 26 26 27 27 27 28 28 29
12 12 11 11 11 11 11 10 10 10 10 10 10 10 10 10 10 10 10 10 11 11 12 12 12 12 13 14 17 20 19 19 20 22 23 24 25 25 25 24 25 24 23 25 25 26 26
10 9 10 9 9 9 8 8 8 8 8 8 8 8 8 9 9 9 9 9 10 11 11 11 11 11 13 16 17 16 18 18 21 21 23 23 25 25 24 24 22 21 21 20 23 24 25
8 8 8 8 8 8 8 8 8 8 8 8 8 7 7 8 8 8 8 9 10 11 10 11 9 11 13 17 17 17 17 18 20 21 21 22 23 20 20 19 18 18 18 19 21 24 24
8 8 8 8 8 7 7 7 7 7 7 7 7 7 7 7 8 8 8 9 10 11 11 9 10 11 13 16 18 18 17 18 20 21 21 20 19 17 17 17 18 18 17 18 20 22 24
7 7 6 6 6 6 6 6 6 6 6 6 6 6 6 7 7 7 7 10 14 12 11 14 15 15 19 19 19 17 16 17 18 18 17 19 16 17 18 18 20 20 21 22 24 25 24
6 6 6 6 6 6 6 5 5 5 5 6 6 6 6 7 7 8 7 10 7 5 8 11 13 15 17 18 18 18 15 15 15 16 17 16 17 20 21 20 19 19 19 21 23 25 25
5 5 5 5 5 5 5 5 5 5 5 5 5 5 5 6 7 8 10 9 7 6 7 10 13 14 16 18 17 18 16 16 15 16 18 17 19 20 21 20 18 18 18 20 21 23 25
5 5 5 5 5 5 5 5 5 5 5 5 5 5 5 6 8 10 11 8 8 7 7 11 15 16 16 17 15 19 19 17 16 16 17 17 20 20 20 20 20 18 20 20 21 21 20
5 4 4 4 4 4 4 5 5 4 4 5 5 5 6 5 7 10 11 9 8 8 8 16 18 20 19 17 17 19 19 18 16 17 16 17 16 17 18 18 20 20 21 20 20 20 19
4 4 4 4 4 4 4 4 4 4 5 5 5 5 5 9 8 9 9 10 10 7 8 15 20 15 12 16 18 18 19 19 18 16 17 17 19 17 16 18 18 19 19 18 19 19 18
4 4 5 4 4 4 4 5 5 5 4 5 5 6 5 7 8 9 9 10 7 7 14 15 14 14 14 14 13 13 16 17 14 15 15 17 17 18 17 16 18 19 17 16 16 17 17
5 5 4 4 5 5 5 4 4 5 5 6 6 6 6 7 8 8 9 8 6 10 13 15 13 14 14 16 14 13 13 11 16 15 15 15 15 17 19 17 17 17 17 15 18 18 19
4 4 4 5 5 5 5 5 5 5 5 5 6 6 8 9 8 8 8 6 8 10 12 11 12 11 13 12 8 10 12 9 7 7 10 11 13 12 13 13 16 17 16 18 17 15 16
4 5 5 5 5 5 5 5 4 4 5 5 6 8 10 8 8 8 6 7 9 11 12 12 9 11 9 11 11 10 10 8 8 7 5 8 11 8 9 10 13 13 17 16 16 17 17
5 5 5 5 5 5 4 4 4 4 5 5 7 10 8 8 8 7 6 7 9 12 12 11 10 10 10 11 12 11 11 9 10 11 9 8 9 11 11 10 10 10 12 12 12 12 16
5 5 5 5 4 4 3 3 4 4 5 5 9 7 9 8 7 6 6 8 9 10 11 11 12 11 11 11 9 11 11 9 12 11 10 10 10 11 14 12 12 10 10 10 12 13 12
5 5 4 4 3 4 3 4 4 4 5 7 8 9 9 8 6 7 9 10 10 10 10 10 10 11 11 10 8 11 10 9 11 11 10 9 10 12 14 12 12 12 10 10 9 10 12
4 4 3 3 3 4 3 4 4 4 5 5 8 6 10 8 9 7 7 7 9 10 10 9 10 11 10 9 11 10 11 9 11 12 10 11 9 9 11 10 10 10 11 10 10 12 12
3 3 4 4 4 3 3 4 4 4 5 5 6 7 9 7 8 8 9 8 8 8 11 11 7 8 6 7 8 10 10 8 10 10 10 10 9 9 11 12 12 13 13 12 11 12 12
3 4 4 4 4 4 4 4 4 4 4 5 5 6 7 7 9 8 8 7 8 9 9 8 9 9 6 6 6 5 7 9 10 12 11 11 8 10 11 13 13 10 13 15 14 13 13
3 3 4 4 4 4 4 4 4 3 4 7 7 7 5 7 8 8 7 7 8 9 10 11 9 8 7 8 9 10 10 11 12 11 11 11 10 10 10 13 12 11 12 13 15 16 15
3 3 3 3 3 4 4 4 4 3 4 5 6 5 4 6 7 8 8 7 6 9 9 10 10 9 10 11 10 11 11 12 12 13 13 10 9 10 9 11 10 14 16 16 16 16 17
3 3 3 3 3 3 3 4 4 4 4 5 5 5 3 5 7 8 8 8 9 9 9 9 10 11 11 10 8 8 10 11 12 13 13 13 11 9 9 10 13 15 13 15 14 14 15
3 3 3 3 3 3 3 3 4 4 4 5 6 4 2 4 8 8 8 8 7 7 8 9 11 11 10 8 7 7 8 10 10 12 13 13 13 9 10 9 10 11 14 15 15 11 13
3 3 3 3 3 3 3 3 3 3 3 4 6 5 4 3 8 9 7 7 8 7 7 6 8 8 9 7 7 8 8 11 9 10 11 10 10 9 9 9 11 11 12 14 11 9 12
3 3 3 3 3 3 3 3 3 3 3 4 6 5 5 4 7 8 9 8 8 8 6 7 8 6 7 6 6 6 8 9 9 11 11 9 8 8 8 9 8 10 12 10 10 12 12
3 3 3 3 3 3 3 3 3 3 3 3 4 5 4 4 6 6 7 7 8 8 7 8 7 6 5 6 7 7 7 7 9 9 10 9 10 9 8 6 7 11 10 12 12 12 12
Height
768 770 769 769 770 772 770 767 769 773 775 773 774 777 776 773 773 772 770 770 768 770 770 772 772 775 773 768 742 739 737 744 746 745 741 737 737 733 733 725 722 720 711 702 698 699 699
762 765 765 766 766 767 767 766 769 771 770 769 770 772 772 770 769 768 767 767 766 765 764 766 767 769 767 747 740 739 737 740 743 741 739 730 727 722 718 718 717 712 708 704 699 698 697
758 762 764 763 765 762 765 767 768 769 769 770 768 768 767 768 766 764 764 762 761 761 759 758 761 761 754 711 732 732 732 732 736 733 730 724 721 720 717 722 714 715 718 709 705 705 704
759 761 761 762 763 764 766 768 769 768 768 770 769 768 767 766 764 760 758 756 757 756 754 754 754 752 735 723 725 727 732 727 727 724 723 723 717 713 714 715 717 725 723 725 711 708 705
756 760 758 761 764 766 767 767 769 769 769 770 770 769 768 766 763 759 755 753 752 751 748 749 750 749 727 712 712 716 718 717 718 714 713 715 714 717 724 725 732 726 725 719 712 704 706
753 758 760 760 764 766 766 768 767 768 767 768 768 767 766 764 760 757 752 750 746 744 742 745 739 746 718 700 700 701 706 706 702 703 704 708 711 720 714 717 705 722 719 709 700 702 691
757 760 764 764 762 765 766 766 766 768 769 768 768 766 764 761 758 754 752 747 738 737 734 719 714 705 684 688 695 695 697 700 698 696 697 699 708 695 666 698 695 700 693 680 667 671 678
756 761 766 764 763 764 765 766 767 767 767 767 767 764 761 760 756 752 752 749 752 754 734 721 709 702 690 694 688 685 694 700 692 685 685 691 673 638 674 679 687 691 689 665 670 665 667
758 762 764 765 767 765 765 766 765 764 764 765 764 763 761 756 754 749 748 748 751 750 739 701 697 695 687 691 679 674 681 680 684 675 670 674 658 664 664 668 679 678 679 663 669 666 658
759 762 764 767 767 766 766 766 765 763 764 765 762 762 757 755 752 749 744 748 746 748 735 690 678 665 670 668 664 653 666 667 664 672 667 654 640 652 653 651 655 670 651 661 662 672 673
758 761 762 766 769 769 768 766 765 765 765 762 760 758 755 754 752 747 747 746 747 749 725 665 648 638 640 648 640 632 639 653 649 649 663 647 652 643 644 639 638 641 645 650 653 659 665
758 760 764 766 769 769 769 768 766 764 760 758 758 759 754 751 750 748 747 745 746 746 718 665 640 651 663 645 634 625 627 633 633 642 636 634 633 646 647 640 638 635 650 647 653 650 659
760 761 762 766 765 769 766 766 767 766 761 756 751 757 752 751 749 748 747 744 745 739 685 666 668 663 657 650 653 645 632 627 636 636 631 626 622 620 637 645 637 639 654 652 652 649 641
760 761 763 764 764 765 765 766 765 763 760 754 751 753 749 748 748 748 747 744 745 707 685 671 677 660 658 641 644 645 636 640 623 627 618 621 622 618 612 626 631 632 639 646 631 625 623
761 762 760 760 758 765 767 764 763 760 762 754 751 749 745 743 746 747 745 747 727 709 694 695 689 680 663 665 685 667 656 663 670 664 652 629 622 629 626 632 627 618 627 617 633 640 638
760 759 760 759 757 755 764 767 766 763 757 753 751 744 739 743 745 746 750 736 721 708 701 696 702 692 690 676 675 681 672 677 673 676 675 665 644 658 651 639 631 627 616 626 622 616 623
756 760 755 755 758 758 764 773 766 759 755 752 747 739 742 743 744 745 744 731 718 706 698 699 698 694 686 677 671 675 667 670 669 660 665 671 662 650 644 646 647 642 636 633 633 635 614
751 755 756 757 760 764 768 769 762 758 752 748 744 747 740 741 744 742 737 726 720 714 706 696 693 689 685 679 682 674 667 679 659 658 666 663 662 645 626 637 639 648 651 658 633 622 641
753 752 763 763 764 764 766 764 760 755 753 749 745 740 738 741 742 734 725 717 710 709 706 701 696 690 685 688 693 670 670 677 667 663 665 665 651 639 625 639 640 640 651 652 652 647 642
751 762 765 763 763 763 763 760 757 755 753 751 748 747 735 738 734 734 729 726 714 707 704 707 698 690 690 687 676 674 665 679 669 661 667 661 671 670 655 658 659 652 646 649 655 647 640
760 763 763 762 761 762 761 759 757 754 753 754 753 748 738 738 732 727 722 721 716 710 700 696 709 703 710 702 690 676 671 685 672 669 671 672 674 670 661 654 648 641 639 642 647 647 641
761 761 761 761 760 760 759 758 756 755 755 756 754 750 744 740 729 724 722 726 716 706 707 705 699 698 710 710 710 710 695 679 670 665 667 672 680 671 660 647 641 661 642 626 632 638 639
761 762 761 760 760 760 758 757 756 756 757 752 752 752 752 739 728 725 724 720 714 703 700 695 697 701 702 698 693 688 683 674 670 669 669 669 672 673 663 642 654 651 642 635 627 621 629
761 761 761 761 761 760 758 757 757 757 757 755 753 754 754 740 731 722 718 720 720 705 700 696 693 692 692 689 688 682 672 665 661 658 658 669 676 675 673 659 666 631 625 624 626 624 623
762 762 762 761 761 760 759 758 757 757 756 754 752 753 754 744 730 721 715 712 707 702 699 693 692 688 688 688 692 686 670 658 652 648 650 651 661 674 675 658 637 626 639 631 630 635 633
762 761 762 761 761 761 759 758 757 756 755 752 750 750 754 750 724 722 719 715 713 707 700 693 689 688 690 693 695 693 678 661 661 643 641 648 648 667 666 671 655 647 637 634 632 649 648
762 762 762 761 762 761 759 758 757 755 753 752 749 749 749 747 727 722 721 720 714 711 707 710 702 699 693 696 693 686 678 661 669 660 651 660 661 665 666 669 649 651 650 641 650 675 656
762 762 762 762 761 760 759 757 755 753 752 751 749 748 748 745 729 724 719 717 715 713 714 709 704 708 703 705 701 693 682 670 667 653 653 665 669 667 665 663 667 660 650 659 665 658 658
762 762 762 761 760 759 757 756 754 753 751 750 749 747 747 746 732 725 720 718 716 715 713 710 711 710 712 708 701 696 689 683 669 665 656 661 659 665 676 685 675 661 666 659 659 662 662
Wind_Speed
18 19 20 17 15 18 15 11 11 11 11 12 16 19 20 20 22 23 23 24 24 26 24 24 21 19 10 10 20 19 17 16 7 11 25 20 24 22 25 23 25 28 28 26 23 24 22
22 19 15 11 7 5 6 7 10 10 10 11 13 15 17 19 20 21 22 23 25 24 23 25 23 21 12 27 21 32 30 29 21 18 23 26 22 24 21 21 23 23 26 27 26 26 25
10 8 7 4 4 5 6 5 5 6 7 9 9 12 14 16 16 17 18 19 21 22 22 21 22 21 11 34 15 15 20 25 30 32 24 30 29 20 16 22 21 21 27 26 26 26 27
11 11 8 7 8 9 8 6 6 8 9 10 11 12 13 14 16 17 18 20 22 22 23 23 23 22 15 32 31 39 39 30 30 35 40 37 32 23 24 19 21 18 21 21 18 24 23
14 12 11 9 7 6 5 6 7 9 10 11 12 14 16 17 19 21 22 24 25 23 20 20 15 11 13 13 26 34 36 41 42 39 39 37 26 19 18 21 14 12 17 23 26 25 23
12 9 7 7 5 4 4 4 5 7 8 10 11 12 15 17 19 21 24 25 26 22 14 11 16 7 10 18 17 29 34 43 31 26 26 27 15 17 19 17 24 14 14 18 28 21 27
11 10 9 9 8 6 5 4 5 7 8 8 10 12 14 18 19 18 21 14 7 6 11 16 11 21 26 23 22 16 32 25 25 28 29 27 16 21 43 25 30 30 30 33 28 22 27
14 11 8 7 7 5 5 5 5 6 8 10 12 14 14 17 20 20 16 5 5 5 11 17 25 30 37 35 25 19 11 12 17 24 20 14 31 49 24 26 30 30 33 40 28 24 23
11 10 8 7 5 5 6 5 6 7 9 11 12 15 17 19 20 15 7 5 7 13 7 24 27 30 34 28 32 32 21 16 19 28 31 30 26 32 28 28 30 31 34 33 30 20 24
10 7 6 6 6 6 5 5 6 7 8 10 11 14 15 18 13 13 13 1 8 7 7 20 23 31 31 33 36 33 35 26 18 30 23 27 39 32 30 29 31 28 34 31 27 19 18
10 9 8 6 4 4 4 5 6 6 8 10 12 13 15 11 13 10 14 7 6 2 8 9 15 20 25 29 32 32 44 29 33 32 18 15 9 23 33 29 29 27 22 27 28 24 18
8 8 6 5 4 5 6 7 7 7 9 11 12 14 14 12 9 12 13 15 9 6 11 12 21 8 17 19 19 32 28 35 31 33 33 36 29 24 24 27 26 18 20 22 20 17 14
7 6 4 2 2 4 6 8 9 10 10 10 13 15 13 13 11 17 13 11 5 7 11 17 14 20 25 16 15 14 21 25 23 24 30 34 37 35 26 25 27 25 25 9 8 12 15
6 5 3 3 5 7 8 8 9 11 13 13 14 16 14 14 11 10 12 7 9 12 19 21 24 32 22 24 14 16 10 11 24 29 10 16 18 28 30 36 22 19 22 7 6 4 10
4 3 4 4 5 6 8 10 12 12 14 13 15 16 16 9 7 5 6 7 6 16 20 19 23 19 19 12 12 12 15 4 3 5 5 7 1 8 9 7 21 35 24 22 21 8 4
7 6 4 5 7 8 11 11 10 12 11 10 11 16 8 3 2 5 4 14 15 20 22 21 19 13 20 22 14 10 5 4 4 2 2 4 6 4 6 8 5 7 10 12 10 7 13
6 5 8 9 8 7 8 11 8 9 9 7 9 4 3 2 3 3 6 8 17 19 16 15 19 19 22 23 20 16 10 5 10 7 2 1 4 2 4 2 2 5 3 2 2 2 8
9 8 7 5 3 5 7 7 6 8 7 5 4 4 1 2 4 2 6 10 13 20 22 19 18 20 19 20 16 16 17 5 12 13 5 3 3 4 12 4 4 3 4 1 4 4 5
8 8 2 1 3 3 5 4 5 7 8 9 4 7 3 1 4 7 15 17 17 13 15 19 17 18 18 16 9 13 8 3 9 10 10 8 5 4 3 4 3 3 3 3 3 2 3
6 1 3 3 1 1 2 4 6 7 7 5 3 4 2 2 6 12 15 14 14 14 20 12 17 14 16 16 18 11 16 5 10 4 5 6 3 5 6 8 6 3 4 5 2 2 4
3 4 3 2 0 1 2 4 7 8 6 4 2 3 9 6 10 16 18 16 18 17 16 14 3 10 9 7 14 15 7 6 8 3 6 7 3 7 9 10 10 13 2 4 3 2 3
3 3 2 2 2 1 3 4 7 7 5 1 2 3 5 11 12 16 13 16 20 16 11 13 16 17 10 5 6 13 10 7 6 3 6 4 5 13 12 6 7 6 14 9 6 5 3
4 3 2 3 4 4 6 6 7 6 3 2 3 5 2 8 11 12 10 16 21 20 10 13 13 11 13 11 13 11 14 14 12 11 10 7 7 9 10 8 8 7 6 11 11 6 7
5 6 7 8 7 6 6 5 5 7 4 9 8 3 1 7 10 14 17 9 13 19 17 12 14 13 11 13 11 16 17 16 15 13 10 6 6 6 9 12 9 12 6 5 2 2 6
6 6 6 6 4 5 6 6 6 6 8 10 4 2 2 6 12 14 19 16 16 14 11 12 14 12 8 10 8 8 9 12 14 16 16 14 11 6 6 9 12 11 7 3 3 12 16
7 7 6 6 5 5 6 6 6 7 10 10 6 1 2 4 3 16 15 14 11 12 10 10 9 8 10 4 3 6 9 12 5 3 8 5 10 8 8 6 6 8 7 8 5 6 12
6 6 6 6 5 6 7 7 7 7 9 10 6 4 3 3 10 10 12 9 9 11 8 7 13 9 10 3 6 9 11 13 8 12 6 3 4 9 8 7 5 5 5 11 4 2 5
4 3 4 5 6 7 7 8 9 8 8 8 9 5 4 3 12 10 12 13 11 9 8 10 6 4 2 3 3 3 4 4 5 10 9 2 2 3 6 7 8 9 2 4 3 5 7
1 2 4 5 7 8 9 9 9 8 7 5 6 5 5 4 7 25 24 19 14 12 8 6 7 4 2 3 3 4 6 4 9 5 8 2 4 2 3 0 7 3 6 5 7 6 8
Wind_Direction
244 244 243 239 239 251 255 252 247 261 268 285 289 286 286 290 292 292 290 289 284 280 278 275 275 276 258 231 237 236 288 315 297 234 225 221 232 233 241 247 251 251 259 260 267 263 264
226 222 214 208 216 252 292 300 294 290 294 295 296 299 302 297 291 288 289 288 281 270 272 274 265 262 231 248 266 252 261 261 255 246 236 233 229 233 250 259 264 277 283 282 282 281 287
173 192 212 216 258 293 295 320 326 331 346 326 321 314 310 311 311 312 311 302 291 285 274 266 269 259 235 245 263 263 247 247 246 241 245 239 238 241 248 264 269 278 272 270 267 271 270
129 118 115 95 81 84 77 58 28 15 1 347 343 337 327 322 321 318 310 305 299 290 287 281 276 268 254 265 256 250 256 265 250 241 244 247 247 256 259 276 271 261 260 265 257 261 267
125 120 105 95 85 68 51 36 18 8 356 348 341 336 331 328 325 322 316 309 301 291 283 277 278 237 261 271 234 237 231 239 241 245 234 246 249 254 264 252 248 214 255 249 253 248 260
113 105 107 108 108 77 50 15 351 340 335 330 328 329 329 327 326 324 319 312 303 283 269 255 233 264 241 246 239 226 228 235 235 234 244 240 226 238 231 221 232 233 226 234 250 249 249
113 109 109 109 100 85 73 48 17 5 354 341 335 334 329 324 320 321 331 329 272 223 212 218 220 225 256 240 239 214 221 236 253 240 231 228 219 210 224 215 238 240 247 251 247 241 239
119 118 109 91 84 82 68 52 28 10 357 349 340 337 334 331 330 320 309 276 63 334 286 266 265 272 263 261 268 219 202 232 213 236 229 231 219 226 212 213 223 231 242 252 264 260 260
110 107 95 75 59 53 45 35 24 6 350 339 332 329 324 319 320 312 304 347 6 2 267 274 254 255 258 252 251 247 197 223 241 227 227 229 232 237 225 216 219 226 232 244 251 261 266
110 97 75 67 64 50 33 17 4 0 349 342 337 334 330 325 299 329 306 11 350 14 274 266 274 240 240 239 244 239 235 217 215 243 259 232 245 228 221 225 214 229 223 239 245 240 248
98 92 79 53 30 15 2 353 348 336 332 336 339 332 335 326 302 310 346 1 339 301 276 274 249 239 217 216 236 231 229 221 227 226 219 236 296 240 227 225 222 230 220 225 232 236 247
106 100 89 70 39 22 357 344 343 344 339 332 321 315 327 330 267 273 336 328 294 256 257 278 294 10 10 298 262 235 245 214 233 236 236 240 247 237 259 250 242 260 259 262 260 250 243
109 98 85 52 30 355 1 349 336 326 321 312 323 320 309 303 294 318 319 294 262 241 300 291 329 331 315 307 320 294 259 227 222 227 234 236 237 235 228 244 253 236 234 236 237 222 233
113 114 110 50 18 1 343 319 313 317 322 324 322 307 290 272 271 305 297 273 249 264 275 323 335 322 300 307 318 339 309 353 255 238 237 230 235 232 225 229 232 219 235 220 242 215 233
134 118 85 51 30 349 328 329 327 323 311 298 311 291 269 296 232 285 280 243 266 284 294 322 315 325 333 5 10 341 337 32 62 341 332 1 263 341 14 299 244 240 240 234 241 256 270
100 82 63 34 24 15 342 320 305 298 313 304 297 299 316 130 244 291 261 257 281 294 297 302 314 303 306 311 321 327 287 20 12 36 146 4 318 4 343 8 3 262 257 229 219 233 228
86 62 48 39 17 353 312 285 301 315 314 311 286 317 45 312 310 270 265 275 299 296 307 315 308 301 297 298 306 310 297 4 357 15 47 261 189 300 276 69 52 346 14 271 114 234 231
59 41 28 9 313 284 270 290 315 331 341 281 316 324 169 305 291 278 277 292 310 305 299 297 288 294 290 309 307 300 286 347 344 353 9 15 230 287 317 173 170 168 158 139 295 75 46
62 52 3 239 237 264 281 306 318 342 2 329 341 298 117 267 290 303 300 304 307 293 319 319 295 300 305 294 293 319 5 319 332 358 4 343 16 316 273 157 149 250 169 124 86 40 134
70 199 204 161 114 2 358 16 8 357 3 335 357 312 317 230 294 299 316 306 316 314 303 310 317 306 314 303 291 271 283 353 300 339 352 356 12 350 342 351 310 321 67 114 46 196 128
185 215 211 204 97 323 11 14 16 16 19 327 343 270 320 304 317 312 309 309 304 306 306 305 305 314 343 332 331 300 11 337 311 60 26 14 324 347 327 318 325 320 314 155 158 90 25
147 118 121 129 83 4 11 18 22 14 17 308 284 307 335 299 311 313 317 309 300 295 316 309 307 319 289 319 275 299 330 357 314 336 7 42 342 321 315 296 308 322 293 262 206 185 224
118 95 79 84 82 78 56 37 30 5 334 295 318 304 294 296 314 317 322 325 301 316 309 304 312 321 319 323 310 291 270 292 296 301 313 321 325 326 295 335 339 287 257 250 272 240 209
112 85 87 92 84 67 46 37 25 15 353 290 290 304 301 297 307 324 330 322 294 307 313 303 296 295 299 297 303 289 288 282 272 270 260 243 249 276 286 295 267 279 184 311 274 301 316
113 107 92 81 57 36 26 18 18 2 353 325 291 236 218 289 316 311 336 330 322 321 310 289 284 298 305 312 309 303 291 263 250 248 244 239 221 252 261 277 293 282 35 317 201 65 24
108 94 81 66 39 24 11 1 355 354 350 339 319 226 150 297 283 323 332 339 335 340 330 348 331 341 320 293 293 283 299 310 292 295 52 292 247 204 254 286 284 74 32 31 352 98 29
103 86 69 51 27 16 9 3 351 333 340 337 302 290 210 264 282 320 320 319 326 332 317 13 337 351 2 308 281 275 279 281 273 289 279 264 307 235 235 248 271 41 354 315 261 101 28
100 73 50 29 10 1 355 353 351 349 334 350 327 322 324 268 292 280 313 316 320 323 329 338 330 27 324 333 306 329 299 307 276 275 266 274 295 274 262 237 243 356 292 31 97 52 26
99 27 11 359 352 345 342 341 340 341 335 325 279 305 272 249 278 300 289 283 276 295 306 315 301 322 23 304 334 312 303 304 306 292 350 223 241 2 167 331 273 122 148 51 46 29 13